カタログに戻る

STARLINK-31530

運用中通信VLEO
NORAD 59322·PAYLOAD·🇺🇸 United States

打ち上げ Mar 25, 2024 から Cape Canaveral Space Force Station

Loading…

次のパス (今後24時間)

TLE

最新Source: CelesTrak SupGP

元期: Sep 15, 2026, 03:41 UTC

1 59322C 24057C   26258.15395833  .00433200  00000+0  10251-2 0  2589
2 59322  42.9786 129.4276 0026867 244.5474 130.6012 15.94856457    17

AllMySatでSTARLINK-31530をリアルタイム追跡

Download on the App Store